When you browse on this site, cookies collect data to enhance your experience and personalize the content and advertising you see.
Visit our Privacy Policy to learn more. By continuing to use the site, you agree to this use of cookies and data.

Hourly Weather Laszkar Gah

Today, 7 August, Friday

Time Temperature Precipitation Wind Pressure Humidity
00:00 +33°C° 0 mm 3 mps 684 mmHg 11%
01:00 +31°C° 0 mm 2 mps 684 mmHg 12%
02:00 +31°C° 0 mm 2 mps 684 mmHg 11%
03:00 +30°C° 0 mm 3 mps 684 mmHg 11%
04:00 +30°C° 0 mm 3 mps 684 mmHg 10%
05:00 +33°C° 0 mm 3 mps 685 mmHg 10%
06:00 +34°C° 0 mm 3 mps 686 mmHg 9%
07:00 +36°C° 0 mm 4 mps 687 mmHg 9%
08:00 +38°C° 0 mm 4 mps 687 mmHg 10%
09:00 +42°C° 0 mm 4 mps 687 mmHg 12%
10:00 +46°C° 0 mm 5 mps 687 mmHg 13%
11:00 +47°C° 0 mm 4 mps 687 mmHg 12%
12:00 +47°C° 0 mm 3 mps 686 mmHg 10%
13:00 +48°C° 0 mm 2 mps 686 mmHg 9%
14:00 +48°C° 0 mm 2 mps 685 mmHg 8%
15:00 +48°C° 0 mm 3 mps 685 mmHg 8%
16:00 +50°C° 0 mm 3 mps 684 mmHg 8%
17:00 +46°C° 0 mm 3 mps 684 mmHg 8%
18:00 +44°C° 0 mm 3 mps 684 mmHg 8%
19:00 +42°C° 0 mm 3 mps 684 mmHg 8%
20:00 +41°C° 0 mm 4 mps 684 mmHg 14%
21:00 +39°C° 0 mm 5 mps 684 mmHg 20%
22:00 +38°C° 0 mm 6 mps 684 mmHg 25%
23:00 +36°C° 0 mm 6 mps 684 mmHg 31%

Tomorrow, 8 August, Saturday

Time Temperature Precipitation Wind Pressure Humidity
00:00 +34°C° 0 mm 5 mps 684 mmHg 37%
01:00 +33°C° 0 mm 4 mps 684 mmHg 43%
02:00 +33°C° 0 mm 4 mps 684 mmHg 44%
03:00 +33°C° 0 mm 4 mps 684 mmHg 45%
04:00 +31°C° 0 mm 3 mps 683 mmHg 45%
05:00 +33°C° 0 mm 3 mps 684 mmHg 39%
06:00 +34°C° 0 mm 3 mps 685 mmHg 33%
07:00 +35°C° 0 mm 3 mps 685 mmHg 27%
08:00 +36°C° 0 mm 3 mps 686 mmHg 25%
09:00 +38°C° 0 mm 3 mps 686 mmHg 22%
10:00 +40°C° 0 mm 4 mps 686 mmHg 19%
11:00 +41°C° 0 mm 4 mps 686 mmHg 19%
12:00 +42°C° 0 mm 5 mps 686 mmHg 19%
13:00 +42°C° 0 mm 6 mps 685 mmHg 19%
14:00 +41°C° 0 mm 7 mps 685 mmHg 21%
15:00 +40°C° 0 mm 7 mps 684 mmHg 23%
16:00 +39°C° 0 mm 8 mps 683 mmHg 25%
17:00 +38°C° 0 mm 7 mps 684 mmHg 27%
18:00 +35°C° 0 mm 7 mps 684 mmHg 30%
19:00 +34°C° 0 mm 7 mps 684 mmHg 32%
20:00 +34°C° 0 mm 5 mps 684 mmHg 34%
21:00 +34°C° 0 mm 4 mps 684 mmHg 36%
22:00 +33°C° 0 mm 3 mps 685 mmHg 38%
23:00 +32°C° 0 mm 2 mps 685 mmHg 40%

Day after tomorrow, 9 August, Sunday

Time Temperature Precipitation Wind Pressure Humidity
00:00 +31°C° 0 mm 1 mps 684 mmHg 43%
01:00 +28°C° 0 mm 0 mps 684 mmHg 45%
02:00 +27°C° 0 mm 0 mps 684 mmHg 47%
03:00 +29°C° 0 mm 1 mps 684 mmHg 48%
04:00 +29°C° 0 mm 1 mps 684 mmHg 50%
05:00 +30°C° 0 mm 1 mps 684 mmHg 46%
06:00 +31°C° 0 mm 1 mps 685 mmHg 43%
07:00 +32°C° 0 mm 1 mps 685 mmHg 39%
08:00 +35°C° 0 mm 2 mps 685 mmHg 35%
09:00 +37°C° 0 mm 2 mps 685 mmHg 32%
10:00 +39°C° 0 mm 3 mps 686 mmHg 28%
11:00 +41°C° 0 mm 4 mps 685 mmHg 23%
12:00 +43°C° 0 mm 4 mps 685 mmHg 18%
13:00 +45°C° 0 mm 4 mps 685 mmHg 12%
14:00 +47°C° 0 mm 5 mps 684 mmHg 10%
15:00 +47°C° 0 mm 6 mps 683 mmHg 8%
16:00 +48°C° 0 mm 6 mps 683 mmHg 6%
17:00 +46°C° 0 mm 6 mps 682 mmHg 6%
18:00 +43°C° 0 mm 7 mps 682 mmHg 5%
19:00 +40°C° 0 mm 7 mps 682 mmHg 5%
20:00 +38°C° 0 mm 6 mps 682 mmHg 7%
21:00 +34°C° 0 mm 5 mps 682 mmHg 9%
22:00 +32°C° 0 mm 4 mps 682 mmHg 10%
23:00 +30°C° 0 mm 4 mps 681 mmHg 13%

10 August, Monday

Time Temperature Precipitation Wind Pressure Humidity
00:00 +29°C° 0 mm 4 mps 681 mmHg 16%
01:00 +27°C° 0 mm 4 mps 681 mmHg 18%
02:00 +26°C° 0 mm 3 mps 681 mmHg 20%
03:00 +25°C° 0 mm 3 mps 681 mmHg 23%
04:00 +24°C° 0 mm 3 mps 681 mmHg 25%
05:00 +26°C° 0 mm 3 mps 681 mmHg 23%
06:00 +27°C° 0 mm 3 mps 682 mmHg 22%
07:00 +28°C° 0 mm 4 mps 683 mmHg 21%
08:00 +32°C° 0 mm 4 mps 683 mmHg 18%
09:00 +35°C° 0 mm 5 mps 683 mmHg 15%
10:00 +37°C° 0 mm 5 mps 684 mmHg 12%
11:00 +40°C° 0 mm 4 mps 684 mmHg 10%
12:00 +42°C° 0 mm 4 mps 683 mmHg 8%
13:00 +43°C° 0 mm 3 mps 683 mmHg 6%
14:00 +44°C° 0 mm 3 mps 683 mmHg 6%
15:00 +43°C° 0 mm 2 mps 682 mmHg 6%
16:00 +45°C° 0 mm 2 mps 682 mmHg 5%
17:00 +41°C° 0 mm 2 mps 681 mmHg 6%
18:00 +38°C° 0 mm 2 mps 681 mmHg 7%
19:00 +35°C° 0 mm 2 mps 681 mmHg 9%
20:00 +33°C° 0 mm 1 mps 681 mmHg 9%
21:00 +32°C° 0 mm 1 mps 681 mmHg 10%
22:00 +31°C° 0 mm 1 mps 681 mmHg 11%
23:00 +31°C° 0 mm 2 mps 681 mmHg 12%

11 August, Tuesday

Time Temperature Precipitation Wind Pressure Humidity
00:00 +31°C° 0 mm 3 mps 682 mmHg 12%
01:00 +31°C° 0 mm 3 mps 682 mmHg 13%
02:00 +30°C° 0 mm 3 mps 682 mmHg 15%
03:00 +29°C° 0 mm 3 mps 682 mmHg 16%
04:00 +28°C° 0 mm 3 mps 682 mmHg 18%
05:00 +29°C° 0 mm 3 mps 682 mmHg 17%
06:00 +30°C° 0 mm 3 mps 683 mmHg 15%
07:00 +31°C° 0 mm 3 mps 683 mmHg 14%
08:00 +34°C° 0 mm 2 mps 684 mmHg 12%
09:00 +37°C° 0 mm 2 mps 684 mmHg 11%
10:00 +39°C° 0 mm 2 mps 684 mmHg 9%
11:00 +41°C° 0 mm 2 mps 684 mmHg 8%
12:00 +44°C° 0 mm 3 mps 684 mmHg 7%
13:00 +46°C° 0 mm 3 mps 684 mmHg 6%
14:00 +47°C° 0 mm 4 mps 683 mmHg 6%
15:00 +47°C° 0 mm 4 mps 683 mmHg 5%
16:00 +48°C° 0 mm 4 mps 683 mmHg 5%
17:00 +44°C° 0 mm 4 mps 682 mmHg 6%
18:00 +42°C° 0 mm 4 mps 682 mmHg 7%
19:00 +38°C° 0 mm 3 mps 682 mmHg 8%
20:00 +37°C° 0 mm 3 mps 682 mmHg 9%
21:00 +36°C° 0 mm 3 mps 683 mmHg 9%
22:00 +35°C° 0 mm 3 mps 683 mmHg 9%
23:00 +34°C° 0 mm 3 mps 683 mmHg 10%

12 August, Wednesday

Time Temperature Precipitation Wind Pressure Humidity
00:00 +32°C° 0 mm 2 mps 683 mmHg 11%
01:00 +30°C° 0 mm 2 mps 682 mmHg 12%
02:00 +30°C° 0 mm 2 mps 682 mmHg 13%
03:00 +29°C° 0 mm 2 mps 683 mmHg 14%
04:00 +28°C° 0 mm 2 mps 683 mmHg 15%
05:00 +29°C° 0 mm 3 mps 683 mmHg 15%
06:00 +30°C° 0 mm 3 mps 684 mmHg 15%
07:00 +31°C° 0 mm 3 mps 685 mmHg 16%
08:00 +34°C° 0 mm 3 mps 685 mmHg 14%
09:00 +36°C° 0 mm 3 mps 685 mmHg 12%
10:00 +39°C° 0 mm 3 mps 685 mmHg 11%
11:00 +42°C° 0 mm 3 mps 685 mmHg 9%
12:00 +44°C° 0 mm 3 mps 685 mmHg 8%
13:00 +46°C° 0 mm 3 mps 685 mmHg 7%
14:00 +47°C° 0 mm 4 mps 684 mmHg 6%
15:00 +48°C° 0 mm 4 mps 684 mmHg 6%
16:00 +49°C° 0 mm 4 mps 683 mmHg 6%
17:00 +45°C° 0 mm 4 mps 683 mmHg 7%
18:00 +43°C° 0 mm 4 mps 683 mmHg 8%
19:00 +41°C° 0 mm 4 mps 683 mmHg 9%
20:00 +38°C° 0 mm 4 mps 683 mmHg 9%
21:00 +36°C° 0 mm 3 mps 683 mmHg 10%
22:00 +35°C° 0 mm 3 mps 683 mmHg 11%
23:00 +34°C° 0 mm 2 mps 683 mmHg 12%
Show more